This is the latest recevied weather packets stored in our database for station/object KD2DXJ. If no packets are shown the sender has not sent any weather packets the latest 10 day(s).
| Time | Temp. | Humidity | Pressure | Rain* | Wind** | Luminosity | Snow |
|---|---|---|---|---|---|---|---|
| 1778067300 | 5.56° C | 99% | 1009.3 hPa | 0 mm | - | 20 W/m² | - |
| 1778066996 | 5.56° C | 99% | 1009.3 hPa | 0 mm | - | 19 W/m² | - |
| 1778066694 | 5.56° C | 99% | 1009.2 hPa | 0 mm | - | 19 W/m² | - |
| 1778066390 | 5.56° C | 99% | 1008.9 hPa | 1.27 mm | - | 18 W/m² | - |
| 1778066089 | 5.56° C | 99% | 1008.9 hPa | 1.27 mm | - | 18 W/m² | - |
| 1778065785 | 5.56° C | 99% | 1009.1 hPa | 0 mm | - | 16 W/m² | - |
| 1778065483 | 5.56° C | 99% | 1009 hPa | 1.78 mm | - | 11 W/m² | - |
| 1778065180 | 5.56° C | 99% | 1009.3 hPa | 1.78 mm | - | 14 W/m² | - |
| 1778064876 | 5.56° C | 99% | 1009.4 hPa | 1.27 mm | - | 10 W/m² | - |
| 1778064573 | 5.56° C | 99% | 1009.2 hPa | 2.29 mm | - | 11 W/m² | - |
| 1778064271 | 5.56° C | 99% | 1009.2 hPa | 1.27 mm | - | 12 W/m² | - |
| 1778063970 | 5.56° C | 99% | 1009 hPa | 3.05 mm | - | 9 W/m² | - |
| 1778063666 | 6.11° C | 99% | 1009.1 hPa | 3.05 mm | - | 5 W/m² | - |
| 1778063363 | 6.11° C | 99% | 1009.2 hPa | 2.29 mm | - | 4 W/m² | - |
| 1778063062 | 6.11° C | 99% | 1009.2 hPa | 3.05 mm | - | 3 W/m² | - |
| 1778062759 | 6.11° C | 99% | 1009.3 hPa | 3.05 mm | - | 2 W/m² | - |
| 1778062454 | 6.11° C | 99% | 1009 hPa | 1.27 mm | - | 2 W/m² | - |
| 1778062152 | 6.11° C | 99% | 1009.1 hPa | 1.78 mm | - | 2 W/m² | - |
| 1778061850 | 6.11° C | 99% | 1008.7 hPa | 3.05 mm | - | 2 W/m² | - |
| 1778061548 | 6.11° C | 99% | 1008.9 hPa | 2.29 mm | - | 1 W/m² | - |
| 1778061246 | 6.11° C | 99% | 1008.8 hPa | 1.27 mm | - | 1 W/m² | - |
| 1778060942 | 6.11° C | 99% | 1008.6 hPa | 1.78 mm | - | 0 W/m² | - |
| 1778060641 | 6.11° C | 99% | 1008.3 hPa | 3.05 mm | - | 0 W/m² | - |
| 1778060338 | 6.11° C | 99% | 1008.4 hPa | 3.05 mm | - | 0 W/m² | - |
| 1778060036 | 6.11° C | 99% | 1008.5 hPa | 1.78 mm | - | 0 W/m² | - |
* Rain latest hour (hover to see other rain measurements)
** Current wind speed in m/s (hover to see current wind gust speed)